Date String (YYYY-MM-DD hh:mm:ss) UTC,Instrument flags,Ambient pressure (hPa),Sample flow (lpm),Bypass flow (lpm),Sample temperature (°C),Ambient temperature (°C),ASC tube jacket temperature (°C),LED temperature (°C),Box temperature (°C),Sample RH (%),Span deviation,Mass concentration (μg/m³),Mass concentration (μg/m³),Mass concentration (μg/m³)
DateTimeUTC,F1_M11,P_M11,Q1_M11,Q2_M11,T1_M11,T2_M11,T3_M11,T4_M11,T5_M11,U1_M11,ZSPAN_M11,X2_M11,X0_M11,X1_M11
2022-03-31 09:00:00,,0819.0,5.00,0.00,22.5,21.8,00.0,31.5,24.3,10.0,0000.0,0003.26,0008.35,0002.27
2022-03-31 09:01:00,,0819.0,5.00,0.00,22.5,21.7,00.0,31.5,24.2,10.0,0000.0,0003.27,0008.36,0002.26
2022-03-31 09:02:00,,0819.0,5.00,0.00,22.5,21.7,00.0,31.5,24.2,10.0,0000.0,0003.33,0008.51,0002.24
2022-03-31 09:03:00,,0819.0,5.00,0.00,22.5,21.6,00.0,31.5,24.2,09.9,0000.0,0003.28,0008.11,0002.21
2022-03-31 09:04:00,,0818.9,5.00,0.00,22.4,21.6,00.0,31.5,24.2,09.9,0000.0,0003.27,0007.79,0002.21
2022-03-31 09:05:00,,0819.0,4.99,0.00,22.4,21.6,00.0,31.5,24.2,10.0,0000.0,0003.28,0007.89,0002.21
2022-03-31 09:06:00,,0818.9,5.00,0.00,22.4,21.6,00.0,31.5,24.1,10.0,0000.0,0003.30,0008.34,0002.21
2022-03-31 09:07:00,,0818.9,5.00,0.00,22.4,21.5,00.0,31.5,24.1,10.0,0000.0,0003.27,0008.17,0002.21
2022-03-31 09:08:00,,0819.0,5.01,0.00,22.4,21.5,00.0,31.5,24.1,10.0,0000.0,0003.24,0008.05,0002.21
2022-03-31 09:09:00,,0819.0,4.99,0.00,22.4,21.5,00.0,31.5,24.1,10.0,0000.0,0003.25,0007.78,0002.21
2022-03-31 09:10:00,,0819.0,5.00,0.00,22.4,21.5,00.0,31.4,24.1,10.1,0000.0,0003.27,0006.99,0002.22
2022-03-31 09:11:00,,0818.9,5.00,0.00,22.3,21.4,00.0,31.4,24.1,10.1,0000.0,0003.27,0007.05,0002.25
2022-03-31 09:12:00,,0819.0,5.00,0.00,22.3,21.4,00.0,31.4,24.1,10.0,0000.0,0003.30,0007.29,0002.24
2022-03-31 09:13:00,,0818.9,5.00,0.00,22.3,21.4,00.0,31.4,24.0,09.9,0000.0,0003.28,0007.08,0002.26
2022-03-31 09:14:00,,0818.9,4.99,0.00,22.3,21.4,00.0,31.4,24.0,09.8,0000.0,0003.27,0007.02,0002.27
2022-03-31 09:15:00,,0818.9,4.99,0.00,22.3,21.4,00.0,31.4,24.0,09.7,0000.0,0003.25,0007.06,0002.25
2022-03-31 09:16:00,,0818.9,5.00,0.00,22.3,21.4,00.0,31.4,24.0,09.6,0000.0,0003.22,0007.12,0002.23
2022-03-31 09:17:00,,0818.9,5.01,0.00,22.3,21.3,00.0,31.4,24.0,09.6,0000.0,0003.23,0006.33,0002.23
2022-03-31 09:18:00,,0819.0,5.01,0.00,22.3,21.5,00.0,31.4,24.0,09.6,0000.0,0003.22,0006.07,0002.20
2022-03-31 09:19:00,,0818.9,5.00,0.00,22.4,22.2,00.0,31.4,24.2,09.5,0000.0,0003.23,0006.19,0002.17
2022-03-31 09:20:00,,0818.9,5.00,0.00,22.5,23.0,00.0,31.5,24.5,09.3,0000.0,0003.22,0006.14,0002.13
2022-03-31 09:21:00,,0819.0,5.00,0.00,22.6,23.1,00.0,31.5,24.6,09.3,0000.0,0003.20,0006.06,0002.11
2022-03-31 09:22:00,,0819.0,4.99,0.00,22.7,22.9,00.0,31.5,24.6,09.2,0000.0,0003.17,0005.92,0002.08
2022-03-31 09:23:00,,0818.9,4.99,0.00,22.7,22.7,00.0,31.5,24.6,09.2,0000.0,0003.12,0005.72,0002.05
2022-03-31 09:24:00,,0819.0,5.00,0.00,22.6,22.5,00.0,31.5,24.5,09.1,0000.0,0003.09,0005.66,0002.03
2022-03-31 09:25:00,,0818.9,5.01,0.00,22.6,22.3,00.0,31.5,24.5,09.0,0000.0,0003.08,0006.28,0002.03
2022-03-31 09:26:00,,0818.9,5.00,0.00,22.6,22.2,00.0,31.5,24.4,09.1,0000.0,0003.14,0007.11,0002.05
2022-03-31 09:27:00,,0818.9,4.98,0.00,22.6,22.0,00.0,31.5,24.4,09.0,0000.0,0003.19,0007.58,0002.05
2022-03-31 09:28:00,,0818.9,5.00,0.00,22.6,22.0,00.0,31.5,24.4,09.1,0000.0,0003.20,0007.60,0002.06
2022-03-31 09:29:00,,0818.8,5.00,0.00,22.6,21.9,00.0,31.5,24.3,09.1,0000.0,0003.19,0007.57,0002.07
2022-03-31 09:30:00,,0818.8,5.01,0.00,22.5,21.8,00.0,31.5,24.3,09.0,0000.0,0003.20,0007.89,0002.06
2022-03-31 09:31:00,,0818.8,5.00,0.00,22.5,21.7,00.0,31.5,24.3,08.9,0000.0,0003.19,0008.09,0002.06
2022-03-31 09:32:00,,0818.8,5.00,0.00,22.5,21.7,00.0,31.5,24.3,08.6,0000.0,0003.20,0008.16,0002.04
2022-03-31 09:33:00,,0818.9,5.00,0.00,22.5,21.6,00.0,31.5,24.2,08.6,0000.0,0003.20,0008.20,0002.02
2022-03-31 09:34:00,,0818.9,5.00,0.00,22.4,21.6,00.0,31.5,24.2,08.8,0000.0,0003.20,0008.19,0002.01
2022-03-31 09:35:00,,0818.9,5.00,0.00,22.4,21.5,00.0,31.5,24.2,08.9,0000.0,0003.20,0008.19,0002.01
2022-03-31 09:36:00,,0819.0,5.00,0.00,22.4,21.5,00.0,31.5,24.2,08.8,0000.0,0003.19,0007.92,0002.01
2022-03-31 09:37:00,,0818.9,5.00,0.00,22.4,21.5,00.0,31.5,24.1,09.1,0000.0,0003.14,0007.29,0001.99
2022-03-31 09:38:00,,0818.9,5.00,0.00,22.4,21.4,00.0,31.4,24.1,09.2,0000.0,0003.10,0006.54,0001.99
2022-03-31 09:39:00,,0818.9,4.99,0.00,22.3,21.4,00.0,31.4,24.1,08.8,0000.0,0003.10,0006.48,0001.98
2022-03-31 09:40:00,,0818.8,5.00,0.00,22.3,21.4,00.0,31.4,24.0,08.8,0000.0,0003.12,0006.53,0001.96
2022-03-31 09:41:00,,0818.8,5.01,0.00,22.3,21.4,00.0,31.4,24.0,08.8,0000.0,0003.07,0005.99,0001.96
2022-03-31 09:42:00,,0818.8,5.00,0.00,22.3,21.4,00.0,31.4,24.0,08.8,0000.0,0003.06,0005.62,0001.96
2022-03-31 09:43:00,,0818.8,5.00,0.00,22.3,21.3,00.0,31.4,24.0,08.7,0000.0,0003.01,0005.51,0001.96
2022-03-31 09:44:00,,0818.8,5.00,0.00,22.3,21.3,00.0,31.4,24.0,08.7,0000.0,0003.05,0005.58,0001.98
2022-03-31 09:45:00,,0818.8,5.01,0.00,22.3,21.4,00.0,31.4,24.0,08.8,0000.0,0003.09,0005.68,0001.99
2022-03-31 09:46:00,,0818.8,4.99,0.00,22.3,22.1,00.0,31.4,24.2,08.8,0000.0,0003.12,0005.92,0002.00
2022-03-31 09:47:00,,0818.8,5.00,0.00,22.5,22.9,00.0,31.4,24.5,08.8,0000.0,0003.14,0006.16,0002.00
2022-03-31 09:48:00,,0818.8,5.00,0.00,22.6,23.3,00.0,31.5,24.6,08.8,0000.0,0003.15,0006.25,0002.00
2022-03-31 09:49:00,,0818.8,5.00,0.00,22.6,23.1,00.0,31.5,24.6,08.8,0000.0,0003.13,0006.23,0001.99
2022-03-31 09:50:00,,0818.8,4.99,0.00,22.7,22.8,00.0,31.5,24.6,08.8,0000.0,0003.13,0006.27,0001.99
2022-03-31 09:51:00,,0818.8,5.01,0.00,22.7,22.6,00.0,31.5,24.5,08.7,0000.0,0003.15,0006.47,0001.98
2022-03-31 09:52:00,,0818.7,5.01,0.00,22.6,22.4,00.0,31.5,24.4,08.6,0000.0,0003.16,0006.45,0001.99
2022-03-31 09:53:00,,0818.7,4.98,0.00,22.6,22.2,00.0,31.5,24.4,08.4,0000.0,0003.16,0006.42,0001.98
2022-03-31 09:54:00,,0818.7,5.01,0.00,22.6,22.1,00.0,31.5,24.4,08.4,0000.0,0003.17,0006.36,0001.98
2022-03-31 09:55:00,,0818.7,5.01,0.00,22.6,22.0,00.0,31.5,24.3,08.4,0000.0,0003.15,0006.23,0001.97
2022-03-31 09:56:00,,0818.7,5.00,0.00,22.6,21.9,00.0,31.5,24.3,08.7,0000.0,0003.15,0006.31,0001.96
2022-03-31 09:57:00,,0818.7,5.00,0.00,22.6,21.8,00.0,31.5,24.3,08.7,0000.0,0003.12,0006.13,0001.95
2022-03-31 09:58:00,,0818.8,5.00,0.00,22.5,21.8,00.0,31.5,24.3,08.9,0000.0,0003.12,0006.02,0001.94
2022-03-31 09:59:00,,0818.7,5.00,0.00,22.5,21.7,00.0,31.5,24.3,09.3,0000.0,0003.11,0006.08,0001.93
